Hourly Weather Gokak

Today, 15 May, Saturday

Time Temperature Precipitation Wind Pressure Humidity
00:00 +30°C° 0.1 mm 3 mps 698 mmHg 63%
01:00 +29°C° 0.1 mm 2 mps 698 mmHg 65%
02:00 +29°C° 0.1 mm 2 mps 697 mmHg 66%
03:00 +29°C° 0.5 mm 2 mps 697 mmHg 67%
04:00 +29°C° 0.5 mm 2 mps 698 mmHg 67%
05:00 +29°C° 0 mm 3 mps 697 mmHg 68%
06:00 +29°C° 0.1 mm 5 mps 698 mmHg 65%
07:00 +30°C° 0.1 mm 7 mps 698 mmHg 63%
08:00 +32°C° 0.1 mm 9 mps 698 mmHg 60%
09:00 +32°C° 0 mm 10 mps 699 mmHg 56%
10:00 +33°C° 0 mm 11 mps 699 mmHg 51%
11:00 +34°C° 0 mm 12 mps 699 mmHg 47%
12:00 +33°C° 0.4 mm 11 mps 698 mmHg 52%
13:00 +32°C° 0.4 mm 9 mps 697 mmHg 57%
14:00 +29°C° 0.4 mm 8 mps 696 mmHg 62%
15:00 +31°C° 0.7 mm 8 mps 696 mmHg 61%
16:00 +31°C° 0.7 mm 8 mps 696 mmHg 60%
17:00 +31°C° 0.7 mm 8 mps 696 mmHg 59%
18:00 +29°C° 0.1 mm 8 mps 697 mmHg 60%
19:00 +29°C° 0.1 mm 7 mps 697 mmHg 62%
20:00 +29°C° 0.1 mm 7 mps 698 mmHg 63%
21:00 +28°C° 0.2 mm 7 mps 698 mmHg 66%
22:00 +28°C° 0.2 mm 7 mps 698 mmHg 69%
23:00 +27°C° 0.2 mm 7 mps 698 mmHg 72%

Tomorrow, 16 May, Sunday

Time Temperature Precipitation Wind Pressure Humidity
00:00 +27°C° 0.1 mm 8 mps 698 mmHg 74%
01:00 +26°C° 0.1 mm 8 mps 697 mmHg 76%
02:00 +26°C° 0.1 mm 9 mps 697 mmHg 78%
03:00 +26°C° 0.1 mm 9 mps 697 mmHg 77%
04:00 +26°C° 0.1 mm 9 mps 697 mmHg 77%
05:00 +26°C° 0.1 mm 10 mps 696 mmHg 77%
06:00 +26°C° 0.1 mm 10 mps 697 mmHg 76%
07:00 +26°C° 0.1 mm 10 mps 698 mmHg 76%
08:00 +26°C° 0.1 mm 11 mps 698 mmHg 75%
09:00 +27°C° 0.1 mm 11 mps 699 mmHg 74%
10:00 +27°C° 0.1 mm 12 mps 699 mmHg 72%
11:00 +28°C° 0.1 mm 12 mps 699 mmHg 71%
12:00 +27°C° 0.1 mm 12 mps 698 mmHg 72%
13:00 +27°C° 0.1 mm 12 mps 698 mmHg 74%
14:00 +27°C° 0.1 mm 11 mps 698 mmHg 75%
15:00 +27°C° 0.1 mm 11 mps 698 mmHg 77%
16:00 +26°C° 0.1 mm 10 mps 698 mmHg 78%
17:00 +26°C° 0.1 mm 9 mps 698 mmHg 80%
18:00 +26°C° 0.1 mm 9 mps 698 mmHg 80%
19:00 +24°C° 0.1 mm 9 mps 699 mmHg 81%
20:00 +24°C° 0.1 mm 9 mps 700 mmHg 81%
21:00 +24°C° 0 mm 8 mps 700 mmHg 82%
22:00 +24°C° 0 mm 8 mps 700 mmHg 83%
23:00 +24°C° 0 mm 7 mps 700 mmHg 84%

Day after tomorrow, 17 May, Monday

Time Temperature Precipitation Wind Pressure Humidity
00:00 +24°C° 0 mm 7 mps 699 mmHg 84%
01:00 +24°C° 0 mm 7 mps 699 mmHg 84%
02:00 +23°C° 0 mm 7 mps 698 mmHg 84%
03:00 +23°C° 0 mm 6 mps 699 mmHg 84%
04:00 +24°C° 0 mm 6 mps 699 mmHg 84%
05:00 +24°C° 0 mm 6 mps 699 mmHg 84%
06:00 +24°C° 0 mm 7 mps 700 mmHg 79%
07:00 +26°C° 0 mm 7 mps 701 mmHg 75%
08:00 +27°C° 0 mm 8 mps 701 mmHg 70%
09:00 +28°C° 0 mm 8 mps 701 mmHg 64%
10:00 +31°C° 0 mm 8 mps 702 mmHg 58%
11:00 +33°C° 0 mm 8 mps 702 mmHg 53%
12:00 +33°C° 0.1 mm 8 mps 701 mmHg 52%
13:00 +33°C° 0.1 mm 8 mps 701 mmHg 51%
14:00 +34°C° 0.1 mm 8 mps 700 mmHg 50%
15:00 +33°C° 0 mm 8 mps 700 mmHg 51%
16:00 +33°C° 0 mm 7 mps 700 mmHg 52%
17:00 +32°C° 0 mm 7 mps 700 mmHg 54%
18:00 +30°C° 0 mm 6 mps 701 mmHg 58%
19:00 +29°C° 0 mm 6 mps 701 mmHg 62%
20:00 +28°C° 0 mm 6 mps 701 mmHg 66%
21:00 +28°C° 0 mm 5 mps 701 mmHg 68%
22:00 +27°C° 0 mm 5 mps 701 mmHg 70%
23:00 +27°C° 0 mm 4 mps 701 mmHg 71%

18 May, Tuesday

Time Temperature Precipitation Wind Pressure Humidity
00:00 +26°C° 0 mm 4 mps 700 mmHg 73%
01:00 +26°C° 0 mm 3 mps 700 mmHg 75%
02:00 +26°C° 0 mm 3 mps 700 mmHg 77%
03:00 +26°C° 0 mm 3 mps 700 mmHg 79%
04:00 +25°C° 0 mm 3 mps 700 mmHg 81%
05:00 +25°C° 0 mm 3 mps 700 mmHg 82%
06:00 +26°C° 0 mm 3 mps 701 mmHg 77%
07:00 +27°C° 0 mm 3 mps 701 mmHg 72%
08:00 +28°C° 0 mm 3 mps 702 mmHg 67%
09:00 +30°C° 0 mm 4 mps 702 mmHg 60%
10:00 +33°C° 0 mm 4 mps 702 mmHg 54%
11:00 +34°C° 0 mm 5 mps 702 mmHg 47%
12:00 +35°C° 0.1 mm 5 mps 701 mmHg 46%
13:00 +35°C° 0.1 mm 5 mps 701 mmHg 44%
14:00 +36°C° 0.1 mm 5 mps 700 mmHg 43%
15:00 +35°C° 0 mm 6 mps 700 mmHg 45%
16:00 +35°C° 0 mm 6 mps 700 mmHg 47%
17:00 +34°C° 0 mm 6 mps 700 mmHg 50%
18:00 +33°C° 0.1 mm 6 mps 700 mmHg 57%
19:00 +30°C° 0.1 mm 6 mps 701 mmHg 64%
20:00 +28°C° 0.1 mm 7 mps 701 mmHg 71%
21:00 +28°C° 0.1 mm 6 mps 702 mmHg 73%
22:00 +27°C° 0.1 mm 5 mps 702 mmHg 74%
23:00 +27°C° 0.1 mm 4 mps 702 mmHg 76%

19 May, Wednesday

Time Temperature Precipitation Wind Pressure Humidity
00:00 +27°C° 0 mm 4 mps 702 mmHg 76%
01:00 +27°C° 0 mm 3 mps 701 mmHg 77%
02:00 +26°C° 0 mm 2 mps 700 mmHg 78%
03:00 +26°C° 0 mm 2 mps 700 mmHg 79%
04:00 +26°C° 0 mm 2 mps 700 mmHg 79%
05:00 +26°C° 0 mm 2 mps 700 mmHg 80%
06:00 +27°C° 0 mm 3 mps 701 mmHg 76%
07:00 +28°C° 0 mm 3 mps 702 mmHg 71%
08:00 +28°C° 0 mm 3 mps 702 mmHg 67%
09:00 +30°C° 0 mm 4 mps 702 mmHg 61%
10:00 +33°C° 0 mm 4 mps 702 mmHg 55%
11:00 +34°C° 0 mm 4 mps 702 mmHg 49%
12:00 +35°C° 0 mm 4 mps 701 mmHg 48%
13:00 +35°C° 0 mm 4 mps 701 mmHg 46%
14:00 +35°C° 0 mm 4 mps 700 mmHg 44%
15:00 +35°C° 0.2 mm 5 mps 700 mmHg 47%
16:00 +34°C° 0.2 mm 5 mps 700 mmHg 51%
17:00 +33°C° 0.2 mm 6 mps 700 mmHg 54%
18:00 +32°C° 1.8 mm 6 mps 700 mmHg 60%
19:00 +30°C° 1.8 mm 6 mps 701 mmHg 65%
20:00 +29°C° 1.8 mm 6 mps 701 mmHg 71%
21:00 +28°C° 0.1 mm 5 mps 701 mmHg 73%
22:00 +28°C° 0.1 mm 5 mps 702 mmHg 75%
23:00 +27°C° 0.1 mm 4 mps 702 mmHg 77%

20 May, Thursday

Time Temperature Precipitation Wind Pressure Humidity
00:00 +27°C° 0 mm 4 mps 701 mmHg 79%
01:00 +26°C° 0 mm 5 mps 701 mmHg 80%
02:00 +26°C° 0 mm 5 mps 700 mmHg 82%
03:00 +26°C° 0 mm 4 mps 701 mmHg 82%
04:00 +26°C° 0 mm 3 mps 701 mmHg 83%
05:00 +25°C° 0 mm 3 mps 701 mmHg 84%
06:00 +26°C° 0 mm 3 mps 701 mmHg 79%
07:00 +27°C° 0 mm 3 mps 702 mmHg 75%
08:00 +28°C° 0 mm 3 mps 702 mmHg 70%
09:00 +29°C° 0 mm 3 mps 702 mmHg 64%
10:00 +31°C° 0 mm 3 mps 702 mmHg 57%
11:00 +33°C° 0 mm 3 mps 702 mmHg 51%
12:00 +34°C° 0.1 mm 2 mps 702 mmHg 48%
13:00 +35°C° 0.1 mm 2 mps 701 mmHg 45%
14:00 +36°C° 0.1 mm 2 mps 701 mmHg 43%
15:00 +35°C° 0.4 mm 3 mps 701 mmHg 48%
16:00 +33°C° 0.4 mm 4 mps 701 mmHg 53%
17:00 +32°C° 0.4 mm 5 mps 701 mmHg 58%
18:00 +30°C° 0.3 mm 6 mps 701 mmHg 62%
19:00 +30°C° 0.3 mm 6 mps 701 mmHg 67%
20:00 +29°C° 0.3 mm 6 mps 701 mmHg 71%
21:00 +28°C° 1.5 mm 5 mps 702 mmHg 73%
22:00 +28°C° 1.5 mm 4 mps 702 mmHg 74%
23:00 +27°C° 1.5 mm 4 mps 703 mmHg 76%
Show more